K5TCS Weather Reports


Display with metric or nautical units.
time (UTC)temp
F
wind
direction
speed
MPH
gust
MPH
rain 1hr
in
rain 24hr
in
rain mn
in
humidity
%
barometer
mb
20260902203017 87 225 4.0 13.0 0.00 0.01 0.00 34 1029.0
20260902202037 85 248 5.0 12.0 0.00 0.01 0.00 35 1028.4
20260902201017 86 225 4.0 11.0 0.00 0.01 0.00 34 1029.2
20260902200037 85 248 4.0 13.0 0.00 0.02 0.00 36 1029.2
20260902195017 84 180 3.0 9.0 0.00 0.02 0.00 35 1028.9
20260902194016 84 248 4.0 13.0 0.00 0.03 0.00 36 1029.0
20260902193017 86 225 4.0 13.0 0.00 0.03 0.00 35 1029.6
20260902192017 84 225 3.0 11.0 0.00 0.05 0.00 37 1029.8
20260902191016 81 203 4.0 11.0 0.00 0.08 0.00 38 1029.1
20260902190016 82 248 4.0 10.0 0.00 0.13 0.00 37 1029.5
20260902185017 82 248 4.0 12.0 0.00 0.14 0.00 37 1030.0
20260902184016 80 225 2.0 10.0 0.00 0.14 0.00 40 1029.3
20260902183017 80 248 2.0 12.0 0.00 0.14 0.00 39 1029.3
20260902182016 80 248 3.0 12.0 0.00 0.14 0.00 38 1029.5
20260902181016 81 203 3.0 10.0 0.00 0.14 0.00 39 1030.5
20260902180017 81 248 2.0 12.0 0.00 0.14 0.00 38 1030.4
20260902175016 82 225 3.0 12.0 0.00 0.14 0.00 38 1030.7
20260902174017 80 248 4.0 13.0 0.00 0.14 0.00 39 1030.7
20260902173016 81 225 2.0 7.0 0.00 0.14 0.00 39 1031.1
20260902172036 78 248 3.0 9.0 0.00 0.14 0.00 40 1030.6
20260902171036 78 248 2.0 7.0 0.00 0.14 0.00 40 1030.2
20260902170016 77 225 3.0 11.0 0.00 0.14 0.00 42 1029.8
20260902165017 78 203 2.0 10.0 0.00 0.14 0.00 41 1030.2
20260902164016 79 248 3.0 12.0 0.00 0.14 0.00 40 1031.4
20260902163016 80 248 3.0 9.0 0.00 0.14 0.00 39 1031.4
20260902162016 81 203 1.0 7.0 0.00 0.14 0.00 39 1031.3
20260902161016 79 203 2.0 7.0 0.00 0.14 0.00 40 1031.4
20260902160056 78 203 2.0 9.0 0.00 0.14 0.00 40 1031.7
20260902155016 79 203 1.0 6.0 0.00 0.14 0.00 40 1031.6
20260902154016 78 203 1.0 4.0 0.00 0.14 0.00 40 1031.2
20260902153036 77 0.0 3.0 0.00 0.14 0.00 39 1031.1
20260902152016 76 0.0 7.0 0.00 0.14 0.00 39 1031.0
20260902151016 74 0.0 2.0 0.00 0.14 0.00 38 1031.4
20260902150016 73 0.0 0.0 0.00 0.14 0.00 37 1031.2
20260902145016 71 0.0 0.0 0.00 0.14 0.00 36 1030.7
20260902144036 69 0.0 0.0 0.00 0.14 0.00 36 1030.3
20260902143016 68 0.0 0.0 0.00 0.14 0.00 36 1029.8
20260902142036 66 0.0 0.0 0.00 0.14 0.00 37 1029.3
20260902141016 65 0.0 2.0 0.00 0.14 0.00 37 1029.7
20260902140016 65 270 1.0 5.0 0.00 0.14 0.00 37 1029.6
20260902135016 63 270 1.0 4.0 0.00 0.14 0.00 37 1029.2
20260902134016 60 0.0 2.0 0.00 0.14 0.00 35 1028.1
20260902133016 58 0.0 1.0 0.00 0.14 0.00 34 1027.5
20260902132016 58 0.0 3.0 0.00 0.14 0.00 34 1027.3
20260902131016 57 270 1.0 3.0 0.00 0.14 0.00 34 1029.3
20260902130016 57 248 2.0 4.0 0.00 0.14 0.00 35 1029.3
20260902125016 57 248 2.0 5.0 0.00 0.14 0.00 37 1029.3
20260902124016 59 248 3.0 6.0 0.00 0.14 0.00 38 1029.8
20260902123016 59 270 3.0 6.0 0.00 0.14 0.00 38 1029.8
20260902122016 59 270 2.0 5.0 0.00 0.14 0.00 37 1029.8
20260902121015 59 248 1.0 4.0 0.00 0.14 0.00 38 1029.8
20260902120016 60 270 1.0 3.0 0.00 0.14 0.00 38 1029.6
20260902115015 60 248 2.0 4.0 0.00 0.14 0.00 38 1029.9
20260902114015 60 248 2.0 6.0 0.00 0.14 0.00 38 1029.9
20260902113016 60 248 2.0 5.0 0.00 0.14 0.00 38 1029.9
20260902112016 60 248 2.0 6.0 0.00 0.14 0.00 38 1029.8
20260902111017 60 248 2.0 6.0 0.00 0.14 0.00 37 1029.3
20260902110017 59 248 1.0 5.0 0.00 0.14 0.00 37 1029.3
20260902105017 60 248 1.0 4.0 0.00 0.14 0.00 37 1029.3
20260902104017 59 0.0 3.0 0.00 0.14 0.00 37 1028.0
20260902103017 59 248 1.0 4.0 0.00 0.14 0.00 39 1028.1
20260902102037 61 270 2.0 5.0 0.00 0.14 0.00 38 1028.6
20260902101017 61 270 2.0 5.0 0.00 0.14 0.00 38 1027.3
20260902100017 61 270 2.0 5.0 0.00 0.14 0.00 38 1027.3
20260902095037 61 270 1.0 5.0 0.00 0.14 0.00 38 1027.3
20260902094017 61 270 1.0 5.0 0.00 0.14 0.00 37 1026.4
20260902093017 60 248 1.0 6.0 0.00 0.14 0.00 38 1026.2
20260902092017 61 248 2.0 5.0 0.00 0.14 0.00 37 1026.4
20260902091017 61 270 2.0 4.0 0.00 0.14 0.00 37 1025.8
20260902090017 61 270 2.0 7.0 0.00 0.14 0.00 37 1025.8
20260902085017 61 270 2.0 5.0 0.00 0.14 0.00 37 1025.9
20260902084037 60 248 1.0 4.0 0.00 0.14 0.00 34 1026.4
20260902083037 58 0.0 0.0 0.00 0.14 0.00 34 1025.8
20260902082037 58 0.0 0.0 0.00 0.14 0.00 33 1025.9
20260902081017 58 0.0 0.0 0.00 0.14 0.00 35 1025.5
20260902080017 59 0.0 0.0 0.00 0.14 0.00 35 1026.0
20260902075017 59 0.0 0.0 0.00 0.14 0.00 36 1025.9
20260902074037 59 0.0 0.0 0.00 0.14 0.00 36 1026.0
20260902073017 60 0.0 2.0 0.00 0.14 0.00 37 1026.5
20260902072017 60 0.0 3.0 0.00 0.14 0.00 37 1026.5
20260902071017 60 0.0 2.0 0.00 0.14 0.00 37 1027.8
20260902070017 60 0.0 2.0 0.00 0.14 0.00 37 1027.7
20260902065017 60 0.0 3.0 0.00 0.14 0.00 36 1027.6
20260902064017 60 0.0 2.0 0.00 0.14 0.00 34 1030.4
20260902063017 59 0.0 0.0 0.00 0.14 0.00 34 1029.9
20260902062016 59 0.0 3.0 0.00 0.14 0.00 34 1029.9
20260902061036 59 0.0 0.0 0.00 0.14 0.00 35 1030.1
20260902060117 60 0.0 3.0 0.00 0.14 0.14 36 1030.6
20260902055036 60 0.0 2.0 0.00 0.14 0.14 37 1030.6
20260902054016 61 0.0 4.0 0.00 0.14 0.14 38 1030.1
20260902053016 62 248 1.0 4.0 0.00 0.14 0.14 37 1030.2
20260902052036 62 248 1.0 5.0 0.00 0.14 0.14 37 1030.3
20260902051016 62 248 1.0 4.0 0.00 0.14 0.14 36 1030.2
20260902050036 61 248 1.0 5.0 0.00 0.14 0.14 34 1029.8
20260902045016 60 0.0 0.0 0.00 0.14 0.14 32 1029.7
20260902044016 60 0.0 0.0 0.00 0.14 0.14 34 1029.0
20260902043036 61 0.0 0.0 0.00 0.14 0.14 35 1029.4
20260902042036 62 0.0 2.0 0.00 0.14 0.14 36 1029.5
20260902041016 63 0.0 3.0 0.00 0.14 0.14 36 1029.3
20260902040016 63 0.0 2.0 0.00 0.14 0.14 36 1029.1
20260902035016 64 0.0 4.0 0.00 0.14 0.14 36 1029.1
20260902034016 64 0.0 3.0 0.00 0.14 0.14 36 1028.6
20260902033016 64 0.0 3.0 0.00 0.14 0.14 36 1028.5
20260902032016 64 0.0 0.0 0.00 0.14 0.14 35 1028.2
20260902031016 64 0.0 3.0 0.00 0.14 0.14 35 1027.6
20260902030016 64 0.0 0.0 0.00 0.14 0.14 38 1027.1
20260902025016 66 0.0 3.0 0.00 0.14 0.14 41 1027.7
20260902024016 67 0.0 3.0 0.00 0.14 0.14 41 1025.8
20260902023016 66 0.0 2.0 0.00 0.14 0.14 41 1025.7
20260902022036 66 0.0 2.0 0.00 0.14 0.14 42 1025.4
20260902021016 67 0.0 0.0 0.00 0.14 0.14 45 1024.5
20260902020016 68 0.0 0.0 0.00 0.14 0.14 46 1024.5
20260902015036 68 0.0 0.0 0.00 0.14 0.14 47 1024.4
20260902014016 69 0.0 1.0 0.00 0.14 0.14 46 1024.4
20260902013036 70 0.0 3.0 0.00 0.14 0.14 46 1024.7
20260902012017 70 135 1.0 6.0 0.00 0.14 0.14 46 1024.4
20260902011016 69 135 2.0 9.0 0.00 0.14 0.14 47 1024.5
20260902010016 71 180 1.0 6.0 0.00 0.14 0.14 47 1024.8
20260902005036 73 180 2.0 10.0 0.00 0.14 0.14 49 1025.3
20260902004015 79 0.0 3.0 0.00 0.14 0.14 44 1026.8
20260902003016 80 0.0 4.0 0.00 0.14 0.14 42 1026.6
20260902002015 80 0.0 2.0 0.00 0.14 0.14 42 1026.6
20260902001035 79 0.0 3.0 0.00 0.14 0.14 42 1026.3
20260902000015 79 0.0 4.0 0.00 0.14 0.14 41 1026.4
20260901235036 80 0.0 2.0 0.00 0.14 0.14 42 1026.4
20260901234015 81 0.0 3.0 0.00 0.14 0.14 42 1027.0
20260901233017 81 0 1.0 4.0 0.00 0.14 0.14 41 1027.0
20260901232017 81 0.0 4.0 0.00 0.14 0.14 41 1027.1
20260901231017 80 0.0 4.0 0.00 0.14 0.14 41 1026.6
20260901230038 80 338 1.0 4.0 0.00 0.14 0.14 40 1026.8
20260901225017 79 23 1.0 4.0 0.00 0.14 0.14 40 1027.1
20260901224018 79 0.0 4.0 0.00 0.14 0.14 38 1027.5
20260901223017 78 0.0 3.0 0.00 0.14 0.14 37 1027.2
20260901222037 76 0.0 3.0 0.00 0.14 0.14 35 1026.6
20260901221037 75 0.0 4.0 0.00 0.14 0.14 31 1026.4
20260901220017 73 293 1.0 3.0 0.00 0.14 0.14 29 1026.5
20260901215017 69 0.0 3.0 0.00 0.14 0.14 21 1025.3
20260901214017 68 338 1.0 3.0 0.01 0.14 0.14 16 1024.8
20260901213017 67 0.0 0.0 0.01 0.14 0.14 11 1024.9
20260901212017 66 0.0 3.0 0.01 0.14 0.14 11 1024.5
20260901211017 64 0 1.0 3.0 0.01 0.14 0.14 13 1024.2
20260901210017 63 315 1.0 3.0 0.02 0.14 0.14 16 1024.1
20260901205017 63 0.0 3.0 0.02 0.14 0.14 14 1024.3
20260901204017 63 0 1.0 3.0 0.02 0.13 0.13 14 1024.5